Weather History for KBCE - December, 2012

Change the Weather History Date:

Monday, December 3, 2012

  Actual Average Record
Temperature  
Mean Temperature 34 °F -  
Max Temperature 46 °F 38 °F 55 °F (1979)
Min Temperature 23 °F 13 °F -7 °F (2004)
Degree Days  
Heating Degree Days 30    
Moisture  
Dew Point 30 °F    
Average Humidity 83    
Maximum Humidity 100    
Minimum Humidity 42    
Precipitation  
Precipitation 0.02 in - - ()
Sea Level Pressure  
Sea Level Pressure 30.10 in    
Wind  
Wind Speed 9 mph (NW)    
Max Wind Speed 14 mph    
Max Gust Speed 18 mph    
Visibility 10 miles    
Events Rain    
Averages and records for this station are not official NWS values.
T = Trace of Precipitation, MM = Missing Value Source: NWS Daily Summary

Daily Weather History Graph

Daily Weather History Graph

Search for Another Location

Airport or City:

Trip Planner

Search our weather history database for the weather conditions in past years. The results will help you decide how hot, cold, wet, or windy it might be!

Date:

Astronomy

Dec. 03, 2012 Rise Set
Actual Time 7:27 AM MST 5:09 PM MST
Civil Twilight 6:58 AM MST 5:38 PM MST
Nautical Twilight 6:25 AM MST 6:11 PM MST
Astronomical Twilight 5:54 AM MST 6:43 PM MST
Moon 9:57 PM MST (12/3) 10:55 AM MST (12/3)
Length of Visible Light 10h 40m
Length of Day
9h 42m
Waning Gibbous, 77% of the Moon is Illuminated
Dec 3
Waning Gibbous
Dec 6
Last Quarter
Dec 13
New
Dec 19
First Quarter
Dec 28
Full

Hourly Weather History & Observations

Time (MST) Temp. Windchill Dew Point Humidity Pressure Visibility Wind Dir Wind Speed Gust Speed Precip Events Conditions
12:53 AM 39.9 °F 32.1 °F 33.1 °F 77% 29.91 in 10.0 mi WSW 13.8 mph - N/A   Mostly Cloudy
1:53 AM 36.0 °F 32.1 °F 30.9 °F 82% 29.94 in 10.0 mi ENE 4.6 mph - N/A   Scattered Clouds
2:53 AM 36.0 °F - 32.0 °F 86% 29.96 in 10.0 mi Calm Calm - N/A   Overcast
3:43 AM 37.4 °F 29.8 °F 33.8 °F 87% 30.13 in 7.0 mi WNW 11.5 mph - 0.00 in Rain Light Rain
3:53 AM 36.0 °F 29.0 °F 34.0 °F 93% 29.99 in 6.0 mi WNW 9.2 mph 18.4 mph 0.01 in Rain Light Rain
4:02 AM 35.6 °F 29.9 °F 35.6 °F 100% 30.13 in 10.0 mi WNW 6.9 mph - 0.00 in   Overcast
4:11 AM 35.6 °F 28.0 °F 33.8 °F 93% 30.14 in 10.0 mi WNW 10.4 mph - 0.00 in   Overcast
4:25 AM 35.6 °F 26.6 °F 35.6 °F 100% 30.13 in 10.0 mi WNW 13.8 mph - 0.01 in Rain Light Rain
4:35 AM 35.6 °F 27.5 °F 33.8 °F 93% 30.14 in 10.0 mi NW 11.5 mph - 0.01 in Rain Light Rain
4:42 AM 35.6 °F 28.6 °F 33.8 °F 93% 30.14 in 10.0 mi NNW 9.2 mph - 0.01 in Rain Light Rain
4:53 AM 35.1 °F 26.9 °F 32.0 °F 89% 29.99 in 10.0 mi NNW 11.5 mph - 0.01 in   Mostly Cloudy
5:13 AM 33.8 °F 26.4 °F 32.0 °F 93% 30.13 in 10.0 mi WNW 9.2 mph - N/A   Mostly Cloudy
5:25 AM 32.0 °F 22.1 °F 30.2 °F 93% 30.13 in 4.0 mi NE 13.8 mph - N/A   Mostly Cloudy
5:34 AM 32.0 °F 24.2 °F 30.2 °F 93% 30.14 in 9.0 mi North 9.2 mph - N/A   Overcast
5:53 AM 32.0 °F 25.6 °F 30.9 °F 96% 30.01 in 10.0 mi North 6.9 mph - N/A   Overcast
6:01 AM 32.0 °F 26.4 °F 30.2 °F 93% 30.16 in 10.0 mi North 5.8 mph - N/A   Overcast
6:24 AM 30.2 °F 22.6 °F 30.2 °F 100% 30.16 in 10.0 mi NNE 8.1 mph - N/A   Mostly Cloudy
6:33 AM 30.2 °F 25.4 °F 28.4 °F 93% 30.16 in 10.0 mi North 4.6 mph - N/A   Partly Cloudy
6:53 AM 28.9 °F 21.9 °F 27.0 °F 92% 30.03 in 10.0 mi NW 6.9 mph - N/A   Clear
8:53 AM 32.0 °F 25.6 °F 30.9 °F 96% 30.09 in 10.0 mi NNW 6.9 mph - N/A   Clear
9:53 AM 37.0 °F 32.4 °F 33.1 °F 86% 30.06 in 10.0 mi NNE 5.8 mph - N/A   Clear
10:53 AM 42.1 °F 38.4 °F 32.0 °F 67% 30.04 in 10.0 mi North 5.8 mph - N/A   Clear
11:53 AM 44.1 °F 38.6 °F 27.0 °F 51% 30.03 in 10.0 mi West 10.4 mph - N/A   Clear
12:53 PM 44.1 °F 39.0 °F 27.0 °F 51% 30.04 in 10.0 mi NW 9.2 mph - N/A   Clear
1:53 PM 46.0 °F 40.6 °F 24.1 °F 42% 30.05 in 10.0 mi NNW 11.5 mph - N/A   Clear
2:53 PM 46.0 °F 40.6 °F 25.0 °F 44% 30.05 in 10.0 mi NW 11.5 mph - N/A   Clear
3:53 PM 46.0 °F 41.4 °F 28.0 °F 50% 30.05 in 10.0 mi WNW 9.2 mph - N/A   Clear
4:53 PM 39.9 °F 33.4 °F 28.0 °F 63% 30.10 in 10.0 mi NW 10.4 mph - N/A   Clear
5:53 PM 37.0 °F 31.0 °F 28.0 °F 70% 30.15 in 10.0 mi NW 8.1 mph - N/A   Mostly Cloudy
6:53 PM 34.0 °F 28.0 °F 28.0 °F 79% 30.21 in 10.0 mi NW 6.9 mph - N/A   Clear
7:53 PM 28.0 °F - 25.0 °F 88% 30.24 in 10.0 mi Calm Calm - N/A   Clear
8:53 PM 26.1 °F 21.9 °F 24.1 °F 92% 30.27 in 10.0 mi WNW 3.5 mph - N/A   Clear
9:53 PM 23.0 °F - 21.9 °F 96% 30.27 in 10.0 mi Calm Calm - N/A   Clear
11:53 PM 24.1 °F - 21.9 °F 91% 30.25 in 10.0 mi Calm Calm - N/A   Clear